Location: Peterborough
(44.3091°N, 78.3197°W)
Time: 11:13:21
(UTC-04:00)

Transit 2A - Pass Details

Date: 27 March 2023
Orbit: 591 x 964 km, 66.7° (Epoch: 27 May)

Event Time Altitude Azimuth Distance (km) Brightness Sun altitude
Rises 15:02:20 0° 324° (NW) 3,646 9.4 42.5°
Reaches altitude 10° 15:04:58 10° 320° (NW) 2,707 8.8 42.3°
Maximum altitude 15:11:07 52° 246° (WSW) 1,181 8.6 41.6°
Drops below altitude 10° 15:17:05 10° 172° (S) 2,622 9.4 40.9°
Sets 15:19:36 0° 167° (SSE) 3,522 9.8 40.6°
